Regional Weather Roundup
Issued by NWS Jackson, KY

Home | Current Version | Previous Version | Text Only | Print | Product List | Glossary Off
Versions: 1 2 3 4 5 6 7 8 9 10 11 12 13 14 15 16 17 18 19 20 21 22 23 24 25 26 27 28 29 30 31 32 33 34 35 36 37 38 39 40 41 42 43 44 45 46 47 48 49 50

000
ASUS43 KJKL 230119
RWRJKL

EAST KENTUCKY HOURLY WEATHER ROUNDUP
NATIONAL WEATHER SERVICE JACKSON KY
900 PM EDT TUE JUL 22 2014

NOTE: "FAIR" INDICATES FEW OR NO CLOUDS BELOW 12,000 FEET WITH
NO SIGNIFICANT WEATHER AND/OR OBSTRUCTIONS TO VISIBILITY.

* THESE REPORTS ARE NOT UNDER NWS QUALITY CONTROL AND MAY NOT
  REPORT WEATHER SUCH AS PRECIPITATION AND FOG.

KYZ079-080-083-085-087-088-110-112-115-119-120-230200
...EASTERN KENTUCKY...

CITY           SKY/WX    TMP DP  RH WIND       PRES   REMARKS
JACKSON        CLEAR     81  68  64 CALM      30.09S
LONDON         CLOUDY    80  71  74 CALM      30.09S
SOMERSET*      RAIN      77  72  83 E5        30.08S
MONTICELLO*    PTCLDY    80  76  87 CALM      30.09R
MIDDLESBORO*   CLEAR     78  71  78 W3        30.10R
HARLAN APT*    CLEAR     77  68  73 MISG      30.11S
HAZARD APT*    CLEAR     81  70  69 CALM      30.09R
PIKEVILLE APT* CLEAR     81  70  69 CALM      30.10S
BIG SANDY*     CLEAR     80  73  78 CALM      30.09R
MOREHEAD APT*    N/A     81  73  78 S5        30.09R
ASHLAND*       CLEAR     79  70  73 CALM      30.03S
$$

KYZ035-036-041-042-044-050-067-078-099-230200
...CENTRAL KENTUCKY...

CITY           SKY/WX    TMP DP  RH WIND       PRES   REMARKS
MT STERLING*   CLEAR     81  72  74 SW3       30.08S
FLEMING/MASON* CLEAR     82  72  69 S3        30.06S
DANVILLE*      CLEAR     81  72  74 CALM      30.08R
RICHMOND*      CLEAR     81  72  74 S3        30.07S
LEXINGTON      CLEAR     83  70  64 S7        30.06S
FRANKFORT      CLEAR     82  72  71 CALM      30.04R
$$

KYZ091>093-OHZ055-061-077-WVZ005-015-034-035-042-230200
...SOUTHERN OHIO/WEST VIRGINIA...

CITY           SKY/WX    TMP DP  RH WIND       PRES   REMARKS
COVINGTON      CLEAR     82  67  60 W3        30.04S
COLUMBUS       CLEAR     86  68  54 S6        30.02F
DAYTON         PTCLDY    80  67  64 SW7       30.04F
WILMINGTON     CLEAR     79  71  76 S3        30.04S
HUNTINGTON     CLEAR     81  71  71 CALM      30.04S
CHARLESTON     PTCLDY    81  74  79 CALM      30.06R
PINEVILLE*     CLEAR     75  73  93 MISG      30.17S
BECKLEY        CLOUDY    78  65  63 CALM      30.17R
BLUEFIELD      CLEAR     77  61  57 SW5       30.20S
$$

VAZ002-007-008-TNZ017-027-036-066-071-230200
...SOUTHWEST VIRGINIA/EAST TENNESSEE...

CITY           SKY/WX    TMP DP  RH WIND       PRES   REMARKS
WISE*          CLEAR     77  63  61 CALM      30.19S
JONESVILLE*      N/A     77  73  88 CALM      30.13R
ABINGDON*      PTCLDY    79  67  66 SE3       30.15R
BRISTOL        MOCLDY    80  66  62 SE3       30.12R
KNOXVILLE      MOCLDY    80  72  76 SW10      30.08R
OAK RIDGE      CLEAR     83  71  67 CALM      30.09R
CROSSVILLE     MOCLDY    77  70  79 CALM      30.14R
NASHVILLE      PTCLDY    84  71  65 W3        30.06R
$$

...KEY TO REMARKS...
VSB - VISIBILITY IN MILES
WCI - WIND CHILL INDEX
HX  - HEAT INDEX

$$



USA.gov is the U.S. government's official web portal to all federal, state and local government web resources and services.